• In Deutschland
  • Länderverzeichnis
  • Für 7 Tage
  • Wassertemperatur
  • Satellitenkarten
  • Wetterkarte
  • Widgets
  • user-avatar
    Anmelden

    Stündliche Wetter Hattersheim

    Heute, 16 Dezember, Samstag

    Zeit Temperatur Niederschläge Wind Luftdruck Luftfeuchtigkeit
    00:00 +3°C° 0,3 mm 1 m/S 740 mmHg 92%
    01:00 +3°C° 0 mm 1 m/S 740 mmHg 92%
    02:00 +3°C° 0,1 mm 1 m/S 740 mmHg 92%
    03:00 +2°C° 0,1 mm 1 m/S 741 mmHg 93%
    04:00 +2°C° 0,1 mm 1 m/S 741 mmHg 93%
    05:00 +2°C° 0 mm 1 m/S 742 mmHg 93%
    06:00 +2°C° 0 mm 1 m/S 742 mmHg 93%
    07:00 +2°C° 0 mm 1 m/S 743 mmHg 93%
    08:00 +3°C° 0 mm 1 m/S 744 mmHg 91%
    09:00 +2°C° 0 mm 2 m/S 744 mmHg 90%
    10:00 +3°C° 0 mm 2 m/S 745 mmHg 88%
    11:00 +3°C° 0 mm 2 m/S 746 mmHg 85%
    12:00 +3°C° 0 mm 3 m/S 746 mmHg 82%
    13:00 +3°C° 0 mm 3 m/S 747 mmHg 79%
    14:00 +3°C° 0 mm 3 m/S 747 mmHg 80%
    15:00 +3°C° 0 mm 3 m/S 748 mmHg 80%
    16:00 +3°C° 0 mm 2 m/S 748 mmHg 81%
    17:00 +2°C° 0 mm 3 m/S 749 mmHg 83%
    18:00 +1°C° 0 mm 3 m/S 749 mmHg 85%
    19:00 +1°C° 0 mm 3 m/S 750 mmHg 87%
    20:00 +1°C° 0 mm 3 m/S 750 mmHg 88%
    21:00 0°C° 0 mm 3 m/S 751 mmHg 88%
    22:00 0°C° 0 mm 3 m/S 751 mmHg 89%
    23:00 0°C° 0 mm 3 m/S 752 mmHg 89%

    Morgen, 17 Dezember, Sonntag

    Zeit Temperatur Niederschläge Wind Luftdruck Luftfeuchtigkeit
    00:00 0°C° 0 mm 3 m/S 752 mmHg 89%
    01:00 0°C° 0 mm 3 m/S 752 mmHg 89%
    02:00 0°C° 0 mm 3 m/S 752 mmHg 89%
    03:00 0°C° 0 mm 3 m/S 753 mmHg 89%
    04:00 0°C° 0 mm 3 m/S 753 mmHg 90%
    05:00 0°C° 0,1 mm 3 m/S 753 mmHg 89%
    06:00 0°C° 0,1 mm 3 m/S 754 mmHg 89%
    07:00 0°C° 0,1 mm 3 m/S 754 mmHg 88%
    08:00 +1°C° 0,1 mm 3 m/S 754 mmHg 88%
    09:00 +1°C° 0,1 mm 3 m/S 755 mmHg 87%
    10:00 +1°C° 0,1 mm 3 m/S 756 mmHg 86%
    11:00 +1°C° 0 mm 3 m/S 756 mmHg 85%
    12:00 +2°C° 0 mm 3 m/S 756 mmHg 84%
    13:00 +2°C° 0 mm 3 m/S 756 mmHg 82%
    14:00 +2°C° 0 mm 3 m/S 756 mmHg 83%
    15:00 +3°C° 0 mm 2 m/S 757 mmHg 83%
    16:00 +3°C° 0 mm 2 m/S 757 mmHg 84%
    17:00 +3°C° 0 mm 2 m/S 757 mmHg 85%
    18:00 +2°C° 0 mm 2 m/S 758 mmHg 86%
    19:00 +2°C° 0 mm 2 m/S 758 mmHg 87%
    20:00 +2°C° 0 mm 2 m/S 758 mmHg 87%
    21:00 +2°C° 0 mm 2 m/S 758 mmHg 88%
    22:00 +2°C° 0 mm 2 m/S 758 mmHg 88%
    23:00 +1°C° 0 mm 3 m/S 758 mmHg 88%

    übermorgen, 18 Dezember, Montag

    Zeit Temperatur Niederschläge Wind Luftdruck Luftfeuchtigkeit
    00:00 +1°C° 0 mm 3 m/S 758 mmHg 87%
    01:00 0°C° 0 mm 4 m/S 758 mmHg 87%
    02:00 0°C° 0,6 mm 4 m/S 757 mmHg 87%
    03:00 0°C° 0,6 mm 5 m/S 756 mmHg 87%
    04:00 0°C° 0,6 mm 5 m/S 755 mmHg 87%
    05:00 0°C° 1 mm 5 m/S 755 mmHg 88%
    06:00 0°C° 1 mm 5 m/S 754 mmHg 90%
    07:00 0°C° 1 mm 5 m/S 754 mmHg 91%
    08:00 0°C° 0,3 mm 4 m/S 754 mmHg 92%
    09:00 +1°C° 0,3 mm 4 m/S 754 mmHg 93%
    10:00 +2°C° 0,3 mm 3 m/S 754 mmHg 94%
    11:00 +3°C° 0 mm 3 m/S 755 mmHg 92%
    12:00 +3°C° 0 mm 3 m/S 755 mmHg 89%
    13:00 +4°C° 0 mm 3 m/S 755 mmHg 87%
    14:00 +3°C° 0 mm 3 m/S 756 mmHg 87%
    15:00 +3°C° 0 mm 3 m/S 756 mmHg 88%
    16:00 +4°C° 0 mm 2 m/S 757 mmHg 88%
    17:00 +3°C° 0 mm 2 m/S 758 mmHg 89%
    18:00 +2°C° 0 mm 2 m/S 759 mmHg 90%
    19:00 +2°C° 0 mm 2 m/S 759 mmHg 91%
    20:00 +3°C° 0 mm 1 m/S 760 mmHg 91%
    21:00 +2°C° 0 mm 1 m/S 761 mmHg 91%
    22:00 +2°C° 0 mm 1 m/S 761 mmHg 91%
    23:00 +2°C° 0 mm 1 m/S 762 mmHg 90%

    19 Dezember, Dienstag

    Zeit Temperatur Niederschläge Wind Luftdruck Luftfeuchtigkeit
    00:00 +2°C° 0 mm 1 m/S 762 mmHg 90%
    01:00 +2°C° 0 mm 1 m/S 762 mmHg 90%
    02:00 +1°C° 0 mm 1 m/S 763 mmHg 90%
    03:00 +1°C° 0 mm 1 m/S 763 mmHg 90%
    04:00 +1°C° 0 mm 1 m/S 763 mmHg 90%
    05:00 +1°C° 0 mm 1 m/S 764 mmHg 90%
    06:00 +1°C° 0 mm 1 m/S 764 mmHg 90%
    07:00 +1°C° 0 mm 1 m/S 764 mmHg 90%
    08:00 +1°C° 0 mm 1 m/S 765 mmHg 89%
    09:00 +1°C° 0 mm 1 m/S 765 mmHg 88%
    10:00 +2°C° 0 mm 1 m/S 766 mmHg 87%
    11:00 +3°C° 0 mm 1 m/S 766 mmHg 86%
    12:00 +4°C° 0 mm 1 m/S 766 mmHg 85%
    13:00 +4°C° 0 mm 1 m/S 766 mmHg 84%
    14:00 +4°C° 0 mm 1 m/S 766 mmHg 86%
    15:00 +4°C° 0 mm 1 m/S 766 mmHg 88%
    16:00 +3°C° 0 mm 1 m/S 766 mmHg 90%
    17:00 +3°C° 0 mm 1 m/S 766 mmHg 90%
    18:00 +3°C° 0 mm 1 m/S 766 mmHg 91%
    19:00 +2°C° 0 mm 1 m/S 766 mmHg 91%
    20:00 +2°C° 0 mm 1 m/S 766 mmHg 92%
    21:00 +2°C° 0 mm 1 m/S 766 mmHg 92%
    22:00 +2°C° 0 mm 1 m/S 767 mmHg 92%
    23:00 +2°C° 0 mm 1 m/S 767 mmHg 92%

    20 Dezember, Mittwoch

    Zeit Temperatur Niederschläge Wind Luftdruck Luftfeuchtigkeit
    00:00 +2°C° 0 mm 1 m/S 766 mmHg 92%
    01:00 +2°C° 0 mm 1 m/S 766 mmHg 93%
    02:00 +2°C° 0 mm 1 m/S 766 mmHg 92%
    03:00 +1°C° 0 mm 1 m/S 766 mmHg 92%
    04:00 -1°C° 0 mm 2 m/S 766 mmHg 92%
    05:00 +1°C° 0 mm 2 m/S 766 mmHg 91%
    06:00 +1°C° 0 mm 2 m/S 766 mmHg 91%
    07:00 +1°C° 0 mm 2 m/S 765 mmHg 91%
    08:00 +2°C° 0,1 mm 2 m/S 766 mmHg 91%
    09:00 +2°C° 0,1 mm 2 m/S 766 mmHg 91%
    10:00 +3°C° 0,1 mm 2 m/S 766 mmHg 92%
    11:00 +3°C° 0,1 mm 2 m/S 766 mmHg 93%
    12:00 +4°C° 0,1 mm 2 m/S 766 mmHg 93%
    13:00 +4°C° 0,1 mm 2 m/S 766 mmHg 94%
    14:00 +4°C° 0 mm 2 m/S 766 mmHg 95%
    15:00 +5°C° 0 mm 2 m/S 766 mmHg 95%
    16:00 +5°C° 0 mm 2 m/S 765 mmHg 96%
    17:00 +5°C° 0,1 mm 2 m/S 766 mmHg 96%
    18:00 +5°C° 0,1 mm 2 m/S 766 mmHg 96%
    19:00 +5°C° 0,1 mm 2 m/S 766 mmHg 97%
    20:00 +5°C° 0 mm 2 m/S 766 mmHg 97%
    21:00 +5°C° 0 mm 2 m/S 766 mmHg 97%
    22:00 +5°C° 0 mm 2 m/S 766 mmHg 97%
    23:00 +5°C° 0 mm 2 m/S 766 mmHg 97%

    21 Dezember, Donnerstag

    Zeit Temperatur Niederschläge Wind Luftdruck Luftfeuchtigkeit
    00:00 +5°C° 0 mm 2 m/S 766 mmHg 97%
    01:00 +5°C° 0 mm 2 m/S 766 mmHg 97%
    02:00 +6°C° 0 mm 2 m/S 766 mmHg 97%
    03:00 +6°C° 0 mm 2 m/S 766 mmHg 97%
    04:00 +6°C° 0 mm 2 m/S 766 mmHg 96%
    05:00 +6°C° 0 mm 2 m/S 766 mmHg 96%
    06:00 +6°C° 0 mm 2 m/S 766 mmHg 96%
    07:00 +6°C° 0 mm 2 m/S 765 mmHg 96%
    08:00 +5°C° 0 mm 3 m/S 765 mmHg 96%
    09:00 +7°C° 0 mm 3 m/S 766 mmHg 96%
    10:00 +7°C° 0 mm 3 m/S 766 mmHg 95%
    11:00 +8°C° 0 mm 3 m/S 765 mmHg 94%
    12:00 +8°C° 0 mm 3 m/S 765 mmHg 92%
    13:00 +9°C° 0 mm 3 m/S 765 mmHg 90%
    14:00 +9°C° 0 mm 3 m/S 764 mmHg 91%
    15:00 +8°C° 0 mm 3 m/S 764 mmHg 92%
    16:00 +8°C° 0 mm 3 m/S 764 mmHg 92%
    17:00 +8°C° 0 mm 3 m/S 764 mmHg 92%
    18:00 +8°C° 0 mm 3 m/S 764 mmHg 92%
    19:00 +8°C° 0 mm 3 m/S 764 mmHg 92%
    20:00 +7°C° 0 mm 4 m/S 764 mmHg 92%
    21:00 +7°C° 0 mm 4 m/S 764 mmHg 91%
    22:00 +7°C° 0 mm 4 m/S 763 mmHg 90%
    23:00 +7°C° 0,2 mm 4 m/S 763 mmHg 91%
    Mehr zeigen

    XHprof extension not loaded